Powrót do katalogu

STARLINK-5885

AktywnyŁącznośćSSO
NORAD 56352·PAYLOAD·🇺🇸 United States

Wystrzelony Apr 27, 2023 z Vandenberg Space Force Base

Loading…

Następne Przeloty (najbliższe 24 godziny)

TLE

ŚwieżeSource: CelesTrak SupGP

Epoka: Sep 15, 2026, 03:11 UTC

1 56352C 23058AM  26258.13312500  .00640500  00000+0  35861-1 0  2583
2 56352  97.2852 252.2341 0001528  85.6763 155.8513 15.13196608    15

Śledź STARLINK-5885 w czasie rzeczywistym z AllMySat

Download on the App Store